Hourly Weather Barnowiec

Today, 6 May, Thursday

Time Temperature Precipitation Wind Pressure Humidity
00:00 +2°C° 0 mm 3 mps 701 mmHg 88%
01:00 +2°C° 0 mm 3 mps 702 mmHg 87%
02:00 +1°C° 0 mm 3 mps 702 mmHg 88%
03:00 +1°C° 0 mm 2 mps 703 mmHg 90%
04:00 +1°C° 0 mm 2 mps 703 mmHg 92%
05:00 +2°C° 0 mm 2 mps 703 mmHg 85%
06:00 +4°C° 0 mm 2 mps 704 mmHg 78%
07:00 +5°C° 0 mm 2 mps 705 mmHg 70%
08:00 +7°C° 0 mm 3 mps 705 mmHg 61%
09:00 +8°C° 0 mm 3 mps 705 mmHg 52%
10:00 +10°C° 0 mm 4 mps 705 mmHg 43%
11:00 +10°C° 0 mm 4 mps 705 mmHg 42%
12:00 +10°C° 0 mm 4 mps 704 mmHg 42%
13:00 +11°C° 0 mm 4 mps 704 mmHg 41%
14:00 +11°C° 0 mm 4 mps 704 mmHg 43%
15:00 +11°C° 0 mm 3 mps 704 mmHg 46%
16:00 +11°C° 0 mm 3 mps 704 mmHg 49%
17:00 +9°C° 0 mm 3 mps 703 mmHg 58%
18:00 +7°C° 0 mm 2 mps 703 mmHg 67%
19:00 +6°C° 0 mm 2 mps 703 mmHg 76%
20:00 +5°C° 0 mm 2 mps 703 mmHg 78%
21:00 +4°C° 0 mm 3 mps 703 mmHg 80%
22:00 +4°C° 0 mm 3 mps 703 mmHg 83%
23:00 +4°C° 0 mm 3 mps 702 mmHg 80%

Tomorrow, 7 May, Friday

Time Temperature Precipitation Wind Pressure Humidity
00:00 +4°C° 0 mm 3 mps 702 mmHg 77%
01:00 +4°C° 0 mm 4 mps 701 mmHg 74%
02:00 +4°C° 0.1 mm 4 mps 701 mmHg 79%
03:00 +4°C° 0.1 mm 3 mps 700 mmHg 83%
04:00 +4°C° 0.1 mm 3 mps 700 mmHg 87%
05:00 +5°C° 0 mm 3 mps 700 mmHg 85%
06:00 +7°C° 0 mm 3 mps 700 mmHg 83%
07:00 +8°C° 0 mm 2 mps 700 mmHg 82%
08:00 +9°C° 0 mm 3 mps 700 mmHg 75%
09:00 +10°C° 0 mm 4 mps 700 mmHg 69%
10:00 +11°C° 0 mm 4 mps 700 mmHg 62%
11:00 +11°C° 0.1 mm 4 mps 700 mmHg 64%
12:00 +11°C° 0.1 mm 3 mps 700 mmHg 66%
13:00 +11°C° 0.1 mm 3 mps 700 mmHg 68%
14:00 +10°C° 0.3 mm 4 mps 701 mmHg 70%
15:00 +9°C° 0.3 mm 5 mps 701 mmHg 72%
16:00 +8°C° 0.3 mm 5 mps 701 mmHg 75%
17:00 +6°C° 0 mm 5 mps 702 mmHg 76%
18:00 +5°C° 0 mm 5 mps 703 mmHg 78%
19:00 +2°C° 0 mm 6 mps 704 mmHg 79%
20:00 +2°C° 0 mm 5 mps 704 mmHg 79%
21:00 +1°C° 0 mm 5 mps 705 mmHg 79%
22:00 +1°C° 0 mm 4 mps 705 mmHg 78%
23:00 0°C° 0 mm 4 mps 706 mmHg 79%

Day after tomorrow, 8 May, Saturday

Time Temperature Precipitation Wind Pressure Humidity
00:00 -1°C° 0 mm 4 mps 707 mmHg 80%
01:00 -2°C° 0 mm 4 mps 707 mmHg 81%
02:00 -1°C° 0 mm 4 mps 707 mmHg 80%
03:00 -1°C° 0 mm 4 mps 708 mmHg 79%
04:00 -1°C° 0 mm 4 mps 708 mmHg 79%
05:00 0°C° 0 mm 4 mps 709 mmHg 73%
06:00 +1°C° 0 mm 4 mps 709 mmHg 68%
07:00 +3°C° 0 mm 4 mps 710 mmHg 63%
08:00 +4°C° 0 mm 4 mps 710 mmHg 58%
09:00 +5°C° 0 mm 4 mps 710 mmHg 54%
10:00 +6°C° 0 mm 4 mps 710 mmHg 50%
11:00 +7°C° 0 mm 4 mps 710 mmHg 47%
12:00 +8°C° 0 mm 4 mps 710 mmHg 43%
13:00 +10°C° 0 mm 4 mps 710 mmHg 40%
14:00 +10°C° 0 mm 4 mps 710 mmHg 42%
15:00 +10°C° 0 mm 4 mps 710 mmHg 43%
16:00 +10°C° 0 mm 3 mps 710 mmHg 45%
17:00 +8°C° 0 mm 2 mps 710 mmHg 54%
18:00 +7°C° 0 mm 1 mps 710 mmHg 63%
19:00 +4°C° 0 mm 0 mps 711 mmHg 72%
20:00 +4°C° 0 mm 1 mps 711 mmHg 74%
21:00 +4°C° 0 mm 1 mps 711 mmHg 76%
22:00 +3°C° 0 mm 1 mps 712 mmHg 78%
23:00 +3°C° 0 mm 1 mps 712 mmHg 79%

9 May, Sunday

Time Temperature Precipitation Wind Pressure Humidity
00:00 +2°C° 0 mm 2 mps 712 mmHg 79%
01:00 +2°C° 0 mm 2 mps 712 mmHg 79%
02:00 +1°C° 0 mm 2 mps 712 mmHg 80%
03:00 +1°C° 0 mm 2 mps 712 mmHg 80%
04:00 +1°C° 0 mm 2 mps 712 mmHg 81%
05:00 +3°C° 0 mm 2 mps 712 mmHg 75%
06:00 +5°C° 0 mm 2 mps 712 mmHg 68%
07:00 +7°C° 0 mm 3 mps 712 mmHg 62%
08:00 +9°C° 0 mm 3 mps 712 mmHg 56%
09:00 +11°C° 0 mm 4 mps 712 mmHg 49%
10:00 +13°C° 0 mm 4 mps 711 mmHg 43%
11:00 +14°C° 0 mm 4 mps 711 mmHg 41%
12:00 +15°C° 0 mm 5 mps 711 mmHg 40%
13:00 +16°C° 0 mm 5 mps 711 mmHg 39%
14:00 +16°C° 0 mm 5 mps 711 mmHg 42%
15:00 +16°C° 0 mm 5 mps 711 mmHg 45%
16:00 +16°C° 0 mm 5 mps 711 mmHg 48%
17:00 +14°C° 0 mm 4 mps 710 mmHg 55%
18:00 +12°C° 0 mm 4 mps 710 mmHg 62%
19:00 +10°C° 0 mm 4 mps 710 mmHg 70%
20:00 +7°C° 0 mm 4 mps 710 mmHg 75%
21:00 +7°C° 0 mm 3 mps 710 mmHg 80%
22:00 +5°C° 0 mm 3 mps 710 mmHg 85%
23:00 +5°C° 0 mm 3 mps 710 mmHg 85%

10 May, Monday

Time Temperature Precipitation Wind Pressure Humidity
00:00 +4°C° 0 mm 3 mps 710 mmHg 85%
01:00 +4°C° 0 mm 3 mps 709 mmHg 85%
02:00 +4°C° 0 mm 3 mps 709 mmHg 84%
03:00 +4°C° 0 mm 3 mps 709 mmHg 83%
04:00 +4°C° 0 mm 3 mps 709 mmHg 82%
05:00 +6°C° 0 mm 4 mps 709 mmHg 75%
06:00 +8°C° 0 mm 4 mps 709 mmHg 68%
07:00 +10°C° 0 mm 5 mps 709 mmHg 61%
08:00 +13°C° 0 mm 5 mps 709 mmHg 56%
09:00 +15°C° 0 mm 5 mps 709 mmHg 51%
10:00 +17°C° 0 mm 6 mps 709 mmHg 46%
11:00 +19°C° 0 mm 6 mps 709 mmHg 45%
12:00 +20°C° 0 mm 6 mps 709 mmHg 45%
13:00 +21°C° 0 mm 6 mps 709 mmHg 44%
14:00 +20°C° 0 mm 6 mps 709 mmHg 48%
15:00 +20°C° 0 mm 6 mps 709 mmHg 51%
16:00 +20°C° 0 mm 5 mps 709 mmHg 55%
17:00 +17°C° 0 mm 5 mps 709 mmHg 62%
18:00 +15°C° 0 mm 4 mps 709 mmHg 69%
19:00 +13°C° 0 mm 4 mps 709 mmHg 77%
20:00 +12°C° 0 mm 3 mps 708 mmHg 81%
21:00 +11°C° 0 mm 3 mps 708 mmHg 86%
22:00 +10°C° 0 mm 3 mps 708 mmHg 91%
23:00 +10°C° 0 mm 3 mps 708 mmHg 91%

11 May, Tuesday

Time Temperature Precipitation Wind Pressure Humidity
00:00 +9°C° 0 mm 3 mps 708 mmHg 92%
01:00 +9°C° 0 mm 3 mps 708 mmHg 93%
02:00 +9°C° 0 mm 3 mps 708 mmHg 91%
03:00 +9°C° 0 mm 3 mps 707 mmHg 89%
04:00 +8°C° 0 mm 4 mps 707 mmHg 86%
05:00 +11°C° 0 mm 4 mps 707 mmHg 80%
06:00 +13°C° 0 mm 4 mps 707 mmHg 73%
07:00 +15°C° 0 mm 4 mps 707 mmHg 66%
08:00 +17°C° 0 mm 5 mps 708 mmHg 59%
09:00 +19°C° 0 mm 5 mps 708 mmHg 53%
10:00 +21°C° 0 mm 5 mps 708 mmHg 46%
11:00 +22°C° 0 mm 5 mps 708 mmHg 44%
12:00 +23°C° 0 mm 5 mps 708 mmHg 42%
13:00 +25°C° 0 mm 5 mps 708 mmHg 41%
14:00 +23°C° 0 mm 5 mps 708 mmHg 45%
15:00 +23°C° 0 mm 5 mps 707 mmHg 49%
16:00 +22°C° 0 mm 4 mps 707 mmHg 53%
17:00 +20°C° 0 mm 4 mps 707 mmHg 62%
18:00 +18°C° 0 mm 3 mps 707 mmHg 71%
19:00 +16°C° 0 mm 3 mps 706 mmHg 81%
20:00 +14°C° 0 mm 3 mps 706 mmHg 86%
21:00 +13°C° 0 mm 3 mps 706 mmHg 90%
22:00 +12°C° 0 mm 3 mps 706 mmHg 95%
23:00 +12°C° 0 mm 2 mps 706 mmHg 95%
Show more